| time (UTC) | temp F | wind direction | speed MPH | gust MPH | rain 1hr in | rain 24hr in | rain mn in | humidity % | barometer mb |
| 20260504184520 | 81 | 23 | 1.0 | 5.0 | 0.00 | 0.00 | 0.00 | 30 | 1017.4 |
| 20260504183522 | 82 | 293 | 1.0 | 2.0 | 0.00 | 0.00 | 0.00 | 31 | 1017.4 |
| 20260504182522 | 80 | 45 | 1.0 | 5.0 | 0.00 | 0.00 | 0.00 | 32 | 1017.6 |
| 20260504181522 | 80 | 248 | 2.0 | 7.0 | 0.00 | 0.00 | 0.00 | 32 | 1017.8 |
| 20260504180522 | 80 | 293 | 1.0 | 5.0 | 0.00 | 0.00 | 0.00 | 32 | 1017.8 |
| 20260504175523 | 79 | 45 | 2.0 | 5.0 | 0.00 | 0.00 | 0.00 | 32 | 1017.9 |
| 20260504174522 | 80 | 68 | 1.0 | 6.0 | 0.00 | 0.00 | 0.00 | 33 | 1018.0 |
| 20260504173522 | 80 | 45 | 1.0 | 4.0 | 0.00 | 0.00 | 0.00 | 34 | 1017.9 |
| 20260504172522 | 80 | 45 | 1.0 | 6.0 | 0.00 | 0.00 | 0.00 | 33 | 1017.9 |
| 20260504171522 | 80 | 338 | 1.0 | 4.0 | 0.00 | 0.00 | 0.00 | 31 | 1018.3 |
| 20260504170542 | 80 | 45 | 1.0 | 3.0 | 0.00 | 0.00 | 0.00 | 32 | 1018.5 |
| 20260504150521 | 74 | 0.0 | 2.0 | 0.00 | 0.00 | 0.00 | 50 | 1019.5 | |
| 20260504140522 | 70 | 0.0 | 2.0 | 0.00 | 0.00 | 0.00 | 57 | 1020.0 | |
| 20260504130522 | 63 | 0.0 | 1.0 | 0.00 | 0.00 | 0.00 | 66 | 1019.8 | |
| 20260504110224 | 45 | 0.0 | 0.0 | 0.00 | 0.00 | 0.00 | 87 | 1020.4 | |
| 20260504100521 | 45 | 0.0 | 0.0 | 0.00 | 0.00 | 0.00 | 85 | 1019.7 | |
| 20260504081522 | 46 | 0.0 | 0.0 | 0.00 | 0.00 | 0.00 | 77 | 1019.9 | |
| 20260504080542 | 47 | 0.0 | 0.0 | 0.00 | 0.00 | 0.00 | 76 | 1019.9 | |
| 20260504050542 | 49 | 0.0 | 0.0 | 0.00 | 0.00 | 0.00 | 66 | 1020.1 | |
| 20260504045542 | 50 | 0.0 | 0.0 | 0.00 | 0.00 | 0.00 | 64 | 1020.1 | |
| 20260504045042 | 50 | 0.0 | 0.0 | 0.00 | 0.00 | 0.00 | 64 | 1020.0 | |
| 20260504044022 | 50 | 0.0 | 0.0 | 0.00 | 0.00 | 0.00 | 64 | 1019.9 | |
| 20260504043021 | 50 | 0.0 | 0.0 | 0.00 | 0.00 | 0.00 | 64 | 1020.2 | |
| 20260504042022 | 50 | 0.0 | 0.0 | 0.00 | 0.00 | 0.00 | 63 | 1020.1 | |
| 20260504041022 | 50 | 0.0 | 0.0 | 0.00 | 0.00 | 0.00 | 64 | 1020.0 | |
| 20260504040024 | 50 | 0.0 | 0.0 | 0.00 | 0.00 | 0.00 | 64 | 1020.1 | |
| 20260504035021 | 50 | 0.0 | 0.0 | 0.00 | 0.00 | 0.00 | 63 | 1020.1 | |
| 20260504034020 | 51 | 0.0 | 0.0 | 0.00 | 0.00 | 0.00 | 62 | 1020.1 | |
| 20260504033020 | 51 | 0.0 | 0.0 | 0.00 | 0.00 | 0.00 | 61 | 1020.1 | |
| 20260504032021 | 51 | 0.0 | 0.0 | 0.00 | 0.00 | 0.00 | 62 | 1020.1 | |
| 20260504031020 | 51 | 0.0 | 0.0 | 0.00 | 0.00 | 0.00 | 62 | 1020.0 | |
| 20260504030020 | 51 | 0.0 | 0.0 | 0.00 | 0.00 | 0.00 | 62 | 1019.9 | |
| 20260504025021 | 51 | 0.0 | 0.0 | 0.00 | 0.00 | 0.00 | 61 | 1019.9 | |
| 20260504024021 | 52 | 0.0 | 0.0 | 0.00 | 0.00 | 0.00 | 60 | 1019.9 | |
| 20260504023020 | 52 | 0.0 | 0.0 | 0.00 | 0.00 | 0.00 | 59 | 1019.8 | |
| 20260504022020 | 52 | 0.0 | 0.0 | 0.00 | 0.00 | 0.00 | 57 | 1019.7 | |
| 20260504021021 | 53 | 0.0 | 0.0 | 0.00 | 0.00 | 0.00 | 56 | 1019.7 | |
| 20260504020021 | 53 | 0.0 | 0.0 | 0.00 | 0.00 | 0.00 | 55 | 1019.8 | |
| 20260504015020 | 54 | 0.0 | 0.0 | 0.00 | 0.00 | 0.00 | 53 | 1019.8 | |
| 20260504014020 | 55 | 0.0 | 0.0 | 0.00 | 0.00 | 0.00 | 53 | 1019.7 | |
| 20260504013520 | 55 | 0.0 | 0.0 | 0.00 | 0.00 | 0.00 | 52 | 1019.7 | |
| 20260504012521 | 55 | 0.0 | 0.0 | 0.00 | 0.00 | 0.00 | 50 | 1019.6 | |
| 20260504011520 | 56 | 0.0 | 0.0 | 0.00 | 0.00 | 0.00 | 48 | 1019.6 | |
| 20260504010521 | 56 | 0.0 | 0.0 | 0.00 | 0.00 | 0.00 | 48 | 1019.4 | |
| 20260504005521 | 56 | 0.0 | 0.0 | 0.00 | 0.00 | 0.00 | 49 | 1019.2 | |
| 20260504004541 | 57 | 0.0 | 0.0 | 0.00 | 0.00 | 0.00 | 47 | 1019.2 | |
| 20260504003520 | 57 | 0.0 | 0.0 | 0.00 | 0.00 | 0.00 | 46 | 1019.1 | |
| 20260504002520 | 58 | 0.0 | 0.0 | 0.00 | 0.00 | 0.00 | 45 | 1019.0 | |
| 20260504001523 | 59 | 0.0 | 0.0 | 0.00 | 0.00 | 0.00 | 45 | 1019.1 | |
| 20260504000542 | 60 | 0.0 | 0.0 | 0.00 | 0.00 | 0.00 | 43 | 1018.8 | |
| 20260503235521 | 61 | 0.0 | 0.0 | 0.00 | 0.00 | 0.00 | 41 | 1018.8 | |
| 20260503234522 | 62 | 0.0 | 0.0 | 0.00 | 0.00 | 0.00 | 40 | 1018.6 | |
| 20260503233522 | 63 | 0.0 | 1.0 | 0.00 | 0.00 | 0.00 | 35 | 1018.6 | |
| 20260503232520 | 64 | 0.0 | 3.0 | 0.00 | 0.00 | 0.00 | 37 | 1018.6 | |
| 20260503231522 | 64 | 0.0 | 0.0 | 0.00 | 0.00 | 0.00 | 37 | 1018.7 | |
| 20260503230522 | 65 | 0.0 | 1.0 | 0.00 | 0.00 | 0.00 | 35 | 1018.7 | |
| 20260503225520 | 66 | 0.0 | 3.0 | 0.00 | 0.00 | 0.00 | 35 | 1018.7 | |
| 20260503224520 | 66 | 270 | 1.0 | 3.0 | 0.00 | 0.00 | 0.00 | 34 | 1018.7 |
| 20260503223522 | 66 | 0.0 | 2.0 | 0.00 | 0.00 | 0.00 | 33 | 1018.8 | |
| 20260503222522 | 66 | 0.0 | 3.0 | 0.00 | 0.00 | 0.00 | 34 | 1018.9 | |
| 20260503221713 | 66 | 315 | 1.0 | 8.0 | 0.00 | 0.00 | 0.00 | 33 | 1018.9 |
| 20260503221022 | 66 | 293 | 1.0 | 7.0 | 0.00 | 0.00 | 0.00 | 34 | 1018.8 |
| 20260503220022 | 66 | 23 | 1.0 | 6.0 | 0.00 | 0.00 | 0.00 | 34 | 1018.9 |
| 20260503215022 | 66 | 0.0 | 4.0 | 0.00 | 0.00 | 0.00 | 33 | 1018.8 | |
| 20260503214022 | 66 | 293 | 1.0 | 5.0 | 0.00 | 0.00 | 0.00 | 33 | 1019.0 |
| 20260503213022 | 66 | 315 | 1.0 | 6.0 | 0.00 | 0.00 | 0.00 | 33 | 1019.0 |
| 20260503212042 | 66 | 0.0 | 4.0 | 0.00 | 0.00 | 0.00 | 33 | 1019.2 | |
| 20260503211022 | 67 | 0.0 | 2.0 | 0.00 | 0.00 | 0.00 | 33 | 1019.2 | |
| 20260503210022 | 68 | 293 | 1.0 | 4.0 | 0.00 | 0.00 | 0.00 | 33 | 1019.2 |
| 20260503205022 | 69 | 270 | 1.0 | 8.0 | 0.00 | 0.00 | 0.00 | 33 | 1019.3 |
| 20260503204022 | 69 | 293 | 1.0 | 4.0 | 0.00 | 0.00 | 0.00 | 35 | 1019.4 |
| 20260503203022 | 69 | 45 | 2.0 | 8.0 | 0.00 | 0.00 | 0.00 | 32 | 1019.4 |
| 20260503202042 | 69 | 113 | 1.0 | 4.0 | 0.00 | 0.00 | 0.00 | 33 | 1019.6 |
| 20260503201022 | 68 | 0.0 | 1.0 | 0.00 | 0.00 | 0.00 | 33 | 1019.6 | |
| 20260503200022 | 68 | 45 | 1.0 | 2.0 | 0.00 | 0.00 | 0.00 | 32 | 1019.8 |
| 20260503195022 | 67 | 270 | 1.0 | 4.0 | 0.00 | 0.00 | 0.00 | 32 | 1019.8 |
| 20260503194022 | 67 | 270 | 2.0 | 11.0 | 0.00 | 0.00 | 0.00 | 33 | 1019.9 |
| 20260503193022 | 67 | 45 | 2.0 | 8.0 | 0.00 | 0.00 | 0.00 | 31 | 1020.1 |
| 20260503192021 | 69 | 270 | 2.0 | 8.0 | 0.00 | 0.00 | 0.00 | 32 | 1020.1 |
| 20260503191022 | 68 | 315 | 1.0 | 9.0 | 0.00 | 0.00 | 0.00 | 33 | 1020.2 |
| 20260503190022 | 68 | 0.0 | 4.0 | 0.00 | 0.00 | 0.00 | 34 | 1020.4 |